DL9GJ-6 Weather Reports


time (UTC)temp
C
wind
direction
speed
KPH
gust
KPH
rain 1hr
cm
rain 24hr
cm
rain mn
cm
humidity
%
barometer
mb
20200227103617 3 200 9.7 17.7 0.00 0.08 0.03 75 1006.3
20200227103449 3 186 6.4 19.3 0.00 0.08 0.03 76 1006.4
20200227103017 3 186 6.4 19.3 0.00 0.08 0.03 76 1006.4
20200227102417 3 196 6.4 16.1 0.00 0.08 0.03 77 1006.8
20200227101818 3 205 4.8 17.7 0.00 0.08 0.03 75 1006.9
20200227101217 3 173 9.7 20.9 0.00 0.08 0.03 77 1007.0
20200227101048 3 173 9.7 20.9 0.00 0.08 0.03 77 1007.0
20200227100617 3 196 6.4 17.7 0.00 0.08 0.03 78 1007.1
20200227100017 3 234 4.8 17.7 0.00 0.08 0.03 78 1007.2
20200227095848 3 221 4.8 11.3 0.00 0.08 0.03 79 1007.3
20200227095418 3 229 8.0 14.5 0.00 0.08 0.03 80 1007.4
20200227094817 3 263 6.4 14.5 0.00 0.08 0.03 80 1007.6
20200227094648 3 263 6.4 14.5 0.00 0.08 0.03 80 1007.6
20200227094217 3 254 4.8 16.1 0.00 0.08 0.03 81 1007.7
20200227093618 3 211 9.7 17.7 0.00 0.08 0.03 81 1007.9
20200227093447 2 261 6.4 16.1 0.03 0.08 0.03 81 1007.9
20200227093019 2 261 6.4 16.1 0.03 0.08 0.03 81 1007.9
20200227092849 2 252 8.0 17.7 0.03 0.08 0.03 81 1008.0
20200227092417 2 197 8.0 14.5 0.03 0.08 0.03 81 1008.1
20200227091817 2 257 9.7 16.1 0.03 0.08 0.03 82 1008.2
20200227091647 2 257 9.7 16.1 0.03 0.08 0.03 82 1008.2
20200227091218 2 268 8.0 19.3 0.03 0.08 0.03 82 1008.4
20200227090617 2 273 4.8 17.7 0.03 0.08 0.03 83 1008.5
20200227090018 2 212 4.8 14.5 0.03 0.08 0.03 83 1008.7
20200227085847 2 213 6.4 17.7 0.03 0.08 0.03 84 1008.8
20200227085418 2 260 6.4 19.3 0.03 0.08 0.03 84 1009.0
20200227084817 2 195 4.8 19.3 0.03 0.08 0.03 84 1009.0
20200227084648 2 195 4.8 19.3 0.03 0.08 0.03 84 1009.0
20200227084217 1 199 4.8 12.9 0.03 0.08 0.03 84 1009.1
20200227083617 1 224 4.8 14.5 0.03 0.08 0.03 84 1009.2
20200227083447 1 190 4.8 20.9 0.00 0.05 0.00 85 1009.3
20200227083018 1 190 4.8 20.9 0.00 0.05 0.00 85 1009.3
20200227082418 1 179 11.3 19.3 0.00 0.05 0.00 86 1009.4
20200227081817 1 264 4.8 14.5 0.00 0.05 0.00 86 1009.5
20200227081647 1 264 4.8 14.5 0.00 0.05 0.00 86 1009.5
20200227081217 1 208 6.4 11.3 0.00 0.05 0.00 86 1009.5
20200227081046 1 224 6.4 11.3 0.00 0.05 0.00 87 1009.7
20200227080618 1 224 6.4 11.3 0.00 0.05 0.00 87 1009.7
20200227080447 1 234 6.4 14.5 0.00 0.05 0.00 87 1009.9
20200227080017 1 234 6.4 14.5 0.00 0.05 0.00 87 1009.9
20200227075417 1 251 3.2 14.5 0.00 0.05 0.00 88 1010.2
20200227074817 1 242 4.8 12.9 0.00 0.05 0.00 88 1010.2
20200227074647 1 242 4.8 12.9 0.00 0.05 0.00 88 1010.2
20200227074218 1 249 4.8 11.3 0.00 0.05 0.00 88 1010.2
20200227073617 1 257 3.2 11.3 0.00 0.05 0.00 88 1010.3
20200227073449 0 196 4.8 11.3 0.00 0.05 0.00 89 1010.3
20200227073018 0 196 4.8 11.3 0.00 0.05 0.00 89 1010.3
20200227072851 0 171 4.8 12.9 0.00 0.05 0.00 89 1010.4
20200227072417 0 190 4.8 12.9 0.00 0.05 0.00 89 1010.5
20200227072247 0 190 4.8 12.9 0.00 0.05 0.00 89 1010.5
20200227071816 0 182 4.8 8.0 0.00 0.05 0.00 89 1010.7
20200227071217 0 248 6.4 11.3 0.00 0.05 0.00 89 1010.8
20200227070617 0 242 3.2 6.4 0.00 0.05 0.00 89 1010.7
20200227070447 0 225 1.6 12.9 0.00 0.05 0.00 89 1010.7
20200227070017 0 225 1.6 12.9 0.00 0.05 0.00 89 1010.7
20200227065417 0 253 6.4 11.3 0.00 0.05 0.00 89 1010.8
20200227064817 0 252 4.8 11.3 0.00 0.05 0.00 89 1010.7
20200227064648 0 252 4.8 11.3 0.00 0.05 0.00 89 1010.7
20200227064216 0 255 6.4 19.3 0.00 0.05 0.00 89 1010.7
20200227064047 0 255 6.4 19.3 0.00 0.05 0.00 89 1010.7
20200227063617 0 261 9.7 17.7 0.00 0.05 0.00 89 1010.7
20200227063016 0 244 8.0 16.1 0.00 0.05 0.00 89 1010.7
20200227062418 0 232 6.4 17.7 0.00 0.05 0.00 89 1010.7
20200227061816 0 223 4.8 14.5 0.00 0.05 0.00 89 1010.6
20200227061216 0 220 3.2 6.4 0.00 0.05 0.00 89 1010.6
20200227061049 0 220 3.2 6.4 0.00 0.05 0.00 89 1010.6
20200227060617 0 215 3.2 11.3 0.00 0.05 0.00 89 1010.8
20200227060446 0 173 3.2 9.7 0.00 0.05 0.00 89 1010.7
20200227060016 0 173 3.2 9.7 0.00 0.05 0.00 89 1010.7
20200227055847 0 232 3.2 8.0 0.00 0.05 0.00 89 1010.9
20200227055417 0 213 6.4 11.3 0.00 0.05 0.00 89 1010.9
20200227054816 0 241 6.4 12.9 0.00 0.05 0.00 89 1011.0
20200227054216 0 242 4.8 14.5 0.00 0.05 0.00 89 1011.1
20200227053617 0 232 6.4 14.5 0.00 0.05 0.00 89 1011.1
20200227053447 0 194 4.8 11.3 0.00 0.05 0.00 89 1011.2
20200227053016 0 194 4.8 11.3 0.00 0.05 0.00 89 1011.2
20200227052417 0 229 4.8 14.5 0.00 0.05 0.00 89 1011.4
20200227051816 0 145 8.0 17.7 0.00 0.05 0.00 89 1011.4
20200227051646 0 145 8.0 17.7 0.00 0.05 0.00 89 1011.4
20200227051217 0 228 8.0 14.5 0.00 0.05 0.00 89 1011.5
20200227051049 0 228 8.0 14.5 0.00 0.05 0.00 89 1011.5
20200227050617 0 216 6.4 16.1 0.00 0.05 0.00 89 1011.5
20200227050448 0 248 6.4 17.7 0.00 0.05 0.00 89 1011.6
20200227050018 0 248 6.4 17.7 0.00 0.05 0.00 89 1011.6
20200227045847 0 242 6.4 14.5 0.00 0.05 0.00 90 1011.6
20200227045417 0 246 4.8 14.5 0.00 0.05 0.00 90 1011.6
20200227044817 0 257 8.0 12.9 0.00 0.05 0.00 89 1011.7
20200227044647 0 257 8.0 12.9 0.00 0.05 0.00 89 1011.7
20200227044217 0 272 4.8 11.3 0.00 0.05 0.00 89 1011.6
20200227044047 0 272 4.8 11.3 0.00 0.05 0.00 89 1011.6
20200227043618 0 263 8.0 14.5 0.00 0.05 0.00 89 1011.6
20200227043018 0 277 6.4 12.9 0.00 0.05 0.00 89 1011.5
20200227042846 0 261 9.7 17.7 0.00 0.05 0.00 89 1011.6
20200227042418 0 263 6.4 12.9 0.00 0.05 0.00 89 1011.5
20200227041817 0 243 8.0 17.7 0.00 0.05 0.00 89 1011.5
20200227041646 0 243 8.0 17.7 0.00 0.05 0.00 89 1011.5
20200227041218 0 229 9.7 14.5 0.00 0.05 0.00 89 1011.5
20200227040618 0 233 9.7 14.5 0.00 0.05 0.00 89 1011.5
20200227040017 0 264 11.3 20.9 0.00 0.05 0.00 89 1011.4
20200227035846 0 273 8.0 17.7 0.00 0.05 0.00 89 1011.3
20200227035418 0 242 9.7 17.7 0.00 0.05 0.00 89 1011.3
20200227034818 0 222 6.4 14.5 0.00 0.05 0.00 88 1011.3
20200227034647 0 222 6.4 14.5 0.00 0.05 0.00 88 1011.3
20200227034217 0 195 9.7 16.1 0.00 0.05 0.00 88 1011.3
20200227033617 0 243 9.7 17.7 0.00 0.05 0.00 88 1011.3
20200227033018 0 224 6.4 16.1 0.00 0.05 0.00 88 1011.5
20200227032417 0 259 9.7 19.3 0.00 0.05 0.00 88 1011.4
20200227031817 0 235 9.7 17.7 0.00 0.05 0.00 88 1011.3
20200227031645 0 235 9.7 17.7 0.00 0.05 0.00 88 1011.3
20200227031218 0 238 6.4 17.7 0.00 0.05 0.00 88 1011.3
20200227031049 0 238 6.4 17.7 0.00 0.05 0.00 88 1011.3
20200227030618 0 275 8.0 14.5 0.00 0.05 0.00 88 1011.3
20200227030017 0 276 8.0 17.7 0.00 0.05 0.00 88 1011.3
20200227025847 0 246 9.7 16.1 0.00 0.05 0.00 88 1011.3
20200227025418 0 247 9.7 19.3 0.00 0.05 0.00 88 1011.3
20200227024817 0 265 9.7 17.7 0.00 0.05 0.00 88 1011.4
20200227024218 0 244 6.4 17.7 0.00 0.05 0.00 88 1011.4
20200227023617 0 184 8.0 22.5 0.00 0.05 0.00 88 1011.4
20200227023446 0 208 8.0 16.1 0.00 0.05 0.00 88 1011.4
20200227023017 0 242 6.4 17.7 0.00 0.05 0.00 88 1011.5
20200227022418 0 194 8.0 14.5 0.00 0.05 0.00 88 1011.5
20200227021818 0 227 4.8 12.9 0.00 0.05 0.00 88 1011.7
20200227021217 0 188 4.8 9.7 0.00 0.05 0.00 88 1011.7
20200227021047 0 188 4.8 9.7 0.00 0.05 0.00 88 1011.7
20200227020618 0 227 6.4 16.1 0.00 0.05 0.00 88 1011.7
20200227020018 0 222 6.4 11.3 0.00 0.05 0.00 89 1011.7
20200227015847 0 261 4.8 11.3 0.00 0.18 0.00 89 1011.8
20200227015418 0 250 4.8 11.3 0.00 0.18 0.00 89 1011.7
20200227014818 0 236 4.8 11.3 0.00 0.18 0.00 89 1011.8
20200227014218 0 238 3.2 8.0 0.00 0.18 0.00 88 1011.6
20200227014047 0 238 3.2 8.0 0.00 0.18 0.00 88 1011.6
20200227013617 0 203 4.8 12.9 0.00 0.18 0.00 88 1011.6
20200227013018 0 221 6.4 12.9 0.00 0.18 0.00 88 1011.6
20200227012847 0 246 4.8 14.5 0.00 0.18 0.00 88 1011.8
20200227012418 0 250 6.4 14.5 0.00 0.18 0.00 88 1011.8
20200227011817 0 184 6.4 11.3 0.00 0.18 0.00 88 1011.7
20200227011218 0 246 8.0 14.5 0.00 0.18 0.00 88 1011.6
20200227011047 0 246 8.0 14.5 0.00 0.18 0.00 88 1011.6
20200227010618 0 230 8.0 14.5 0.00 0.18 0.00 88 1011.6
20200227010017 0 272 6.4 12.9 0.00 0.18 0.00 88 1011.6
20200227005418 0 215 6.4 14.5 0.00 0.20 0.00 87 1011.5
20200227004817 0 207 4.8 16.1 0.00 0.20 0.00 87 1011.5
20200227004648 0 207 4.8 16.1 0.00 0.20 0.00 87 1011.5
20200227004218 0 209 3.2 11.3 0.00 0.20 0.00 87 1011.5
20200227004047 0 209 3.2 11.3 0.00 0.20 0.00 87 1011.5
20200227003617 0 237 9.7 17.7 0.00 0.20 0.00 87 1011.4
20200227003446 0 263 6.4 16.1 0.00 0.20 0.00 87 1011.4
20200227003018 0 263 6.4 16.1 0.00 0.20 0.00 87 1011.4
20200227002417 0 242 11.3 20.9 0.00 0.20 0.00 88 1011.4
20200227001817 0 258 8.0 20.9 0.00 0.20 0.00 88 1011.4
20200227001646 0 258 8.0 20.9 0.00 0.20 0.00 88 1011.4
20200227001216 0 238 6.4 11.3 0.00 0.20 0.00 88 1011.3
20200227000616 0 236 6.4 14.5 0.00 0.20 0.00 88 1011.3
20200227000017 0 261 4.8 16.1 0.00 0.20 0.00 88 1011.3
20200226235848 0 259 6.4 17.7 0.00 0.20 0.00 88 1011.2
20200226235418 0 242 8.0 12.9 0.00 0.20 0.00 88 1011.2
20200226234817 0 252 6.4 14.5 0.00 0.20 0.00 88 1011.1
20200226234647 0 252 6.4 14.5 0.00 0.20 0.00 88 1011.1
20200226234216 0 250 6.4 12.9 0.00 0.20 0.00 88 1011.0
20200226234048 0 250 6.4 12.9 0.00 0.20 0.00 88 1011.0
20200226233616 0 242 6.4 11.3 0.00 0.20 0.00 88 1011.0
20200226233447 0 247 8.0 14.5 0.00 0.20 0.00 88 1011.0
20200226233016 0 247 8.0 14.5 0.00 0.20 0.00 88 1011.0
20200226232417 0 240 4.8 14.5 0.00 0.20 0.00 87 1011.0
20200226231817 0 255 8.0 16.1 0.00 0.20 0.00 87 1011.0
20200226231646 0 255 8.0 16.1 0.00 0.20 0.00 87 1011.0
20200226231216 0 235 8.0 14.5 0.00 0.20 0.00 87 1011.0
20200226231046 0 235 8.0 14.5 0.00 0.20 0.00 87 1011.0
20200226230616 0 248 6.4 16.1 0.00 0.20 0.00 87 1010.9
20200226230017 0 243 8.0 16.1 0.00 0.20 0.00 87 1011.0
20200226225846 0 241 6.4 16.1 0.00 0.20 0.20 87 1011.0
20200226225416 0 269 6.4 14.5 0.00 0.20 0.20 87 1011.0
20200226224816 0 251 8.0 14.5 0.00 0.20 0.20 87 1011.0
20200226224216 0 206 4.8 11.3 0.00 0.20 0.20 87 1011.0
20200226224049 0 206 4.8 11.3 0.00 0.20 0.20 87 1011.0
20200226223616 0 238 4.8 12.9 0.00 0.20 0.20 87 1011.0
20200226223447 0 271 4.8 11.3 0.00 0.20 0.20 87 1011.0
20200226223017 0 271 4.8 11.3 0.00 0.20 0.20 87 1011.0
20200226222418 0 254 8.0 16.1 0.00 0.20 0.20 87 1010.9
20200226221816 0 236 8.0 12.9 0.00 0.20 0.20 87 1010.9
20200226221647 0 236 8.0 12.9 0.00 0.20 0.20 87 1010.9
20200226221217 0 253 8.0 14.5 0.00 0.20 0.20 87 1010.8
20200226220617 0 253 8.0 16.1 0.00 0.20 0.20 87 1010.8
20200226220017 0 254 6.4 12.9 0.00 0.20 0.20 87 1010.8
20200226215418 0 257 8.0 14.5 0.00 0.20 0.20 88 1010.7
20200226214818 0 247 8.0 14.5 0.00 0.20 0.20 87 1010.5
20200226214647 0 247 8.0 14.5 0.00 0.20 0.20 87 1010.5
20200226214217 0 240 6.4 14.5 0.00 0.20 0.20 88 1010.5
20200226214046 0 240 6.4 14.5 0.00 0.20 0.20 88 1010.5
20200226213617 0 226 6.4 16.1 0.00 0.20 0.20 87 1010.4
20200226213446 0 264 6.4 16.1 0.00 0.20 0.20 88 1010.5
20200226213017 0 264 6.4 16.1 0.00 0.20 0.20 88 1010.5
20200226212846 0 226 9.7 16.1 0.00 0.20 0.20 88 1010.5
20200226212417 0 215 6.4 12.9 0.00 0.20 0.20 88 1010.5
20200226211818 0 212 6.4 17.7 0.00 0.20 0.20 87 1010.6
20200226211646 0 212 6.4 17.7 0.00 0.20 0.20 87 1010.6
20200226211217 0 257 6.4 16.1 0.00 0.20 0.20 87 1010.5
20200226211047 0 257 6.4 16.1 0.00 0.20 0.20 87 1010.5
20200226210618 0 227 6.4 17.7 0.00 0.20 0.20 87 1010.5
20200226210017 0 233 6.4 19.3 0.00 0.20 0.20 87 1010.4
20200226205417 0 266 4.8 16.1 0.00 0.20 0.20 87 1010.4
20200226204817 0 253 11.3 17.7 0.00 0.20 0.20 87 1010.3
20200226204646 0 253 11.3 17.7 0.00 0.20 0.20 87 1010.3
20200226204217 0 212 4.8 11.3 0.00 0.20 0.20 88 1010.3
20200226204047 0 212 4.8 11.3 0.00 0.20 0.20 88 1010.3
20200226203617 0 259 3.2 12.9 0.00 0.20 0.20 88 1010.2
20200226203018 0 254 6.4 14.5 0.00 0.20 0.20 88 1010.1
20200226202418 0 251 6.4 16.1 0.00 0.20 0.20 88 1010.1
20200226201818 0 250 6.4 12.9 0.00 0.20 0.20 88 1010.0
20200226201217 0 242 6.4 12.9 0.00 0.20 0.20 88 1009.9
20200226200617 0 245 9.7 12.9 0.00 0.20 0.20 88 1009.8
20200226200447 0 267 4.8 12.9 0.00 0.20 0.20 88 1009.6
20200226200017 0 267 4.8 12.9 0.00 0.20 0.20 88 1009.6
20200226195848 0 260 4.8 12.9 0.00 0.20 0.20 89 1009.6
20200226195418 0 248 4.8 12.9 0.00 0.20 0.20 89 1009.5
20200226194818 0 244 6.4 12.9 0.00 0.20 0.20 89 1009.4
20200226194648 0 244 6.4 12.9 0.00 0.20 0.20 89 1009.4
20200226194217 0 263 8.0 14.5 0.00 0.20 0.20 89 1009.4
20200226193617 0 255 6.4 17.7 0.00 0.20 0.20 90 1009.3
20200226193448 0 254 9.7 16.1 0.00 0.20 0.20 90 1009.3
20200226193018 0 254 9.7 16.1 0.00 0.20 0.20 90 1009.3
20200226192846 0 253 8.0 17.7 0.00 0.20 0.20 91 1009.2
20200226192418 0 253 11.3 17.7 0.00 0.20 0.20 91 1009.3
20200226191817 0 252 6.4 19.3 0.00 0.20 0.20 92 1009.2
20200226191218 0 224 8.0 17.7 0.00 0.20 0.20 92 1009.2
20200226190617 0 263 9.7 16.1 0.00 0.20 0.20 92 1009.1
20200226190446 0 248 8.0 20.9 0.00 0.20 0.20 92 1009.1
20200226190018 0 248 8.0 20.9 0.00 0.20 0.20 92 1009.1
20200226185418 0 244 6.4 12.9 0.00 0.20 0.20 92 1009.0
20200226184817 0 256 4.8 14.5 0.00 0.20 0.20 91 1009.0
20200226184218 0 259 4.8 16.1 0.00 0.20 0.20 91 1008.8
20200226184047 0 259 4.8 16.1 0.00 0.20 0.20 91 1008.8
20200226183617 0 248 6.4 17.7 0.00 0.20 0.20 91 1008.8
20200226183018 0 261 6.4 17.7 0.00 0.20 0.20 91 1008.7
20200226182417 0 252 9.7 20.9 0.00 0.20 0.20 90 1008.6
20200226181818 0 275 16.1 25.7 0.00 0.20 0.20 89 1008.4
20200226181649 0 275 16.1 25.7 0.00 0.20 0.20 89 1008.4
20200226181217 0 261 12.9 24.1 0.00 0.20 0.20 88 1008.2
20200226180618 0 212 12.9 17.7 0.00 0.20 0.20 89 1008.1
20200226180018 0 297 9.7 19.3 0.00 0.20 0.20 89 1007.8
20200226175848 0 257 9.7 16.1 0.00 0.20 0.20 90 1007.6
20200226175418 0 267 8.0 16.1 0.00 0.20 0.20 91 1007.7
20200226174817 0 243 6.4 17.7 0.00 0.20 0.20 91 1007.5
20200226174218 0 240 6.4 16.1 0.00 0.20 0.20 91 1007.4
20200226173618 0 254 6.4 16.1 0.00 0.20 0.20 91 1007.2
20200226173018 0 248 4.8 12.9 0.00 0.20 0.20 91 1007.3
20200226172418 0 252 8.0 19.3 0.00 0.20 0.20 91 1007.0
20200226171817 0 232 9.7 16.1 0.00 0.20 0.20 90 1007.0
20200226171218 0 236 6.4 12.9 0.00 0.20 0.20 90 1006.8
20200226170618 0 257 9.7 20.9 0.00 0.20 0.20 89 1006.8
20200226170017 0 272 11.3 22.5 0.00 0.20 0.20 88 1006.7
20200226165847 1 275 14.5 24.1 0.00 0.20 0.20 87 1006.7
20200226165418 1 235 4.8 17.7 0.00 0.20 0.20 87 1006.5
20200226164817 0 244 6.4 17.7 0.00 0.20 0.20 87 1006.4
20200226164646 0 259 8.0 17.7 0.00 0.20 0.20 87 1006.4
20200226164218 1 241 6.4 19.3 0.00 0.20 0.20 86 1006.2
20200226163618 1 248 8.0 22.5 0.00 0.20 0.20 85 1006.1
20200226163447 1 259 11.3 25.7 0.00 0.20 0.20 82 1006.2
20200226163017 1 259 11.3 25.7 0.00 0.20 0.20 82 1006.2
20200226162418 2 272 8.0 17.7 0.00 0.20 0.20 78 1006.0
20200226161817 2 234 8.0 17.7 0.00 0.20 0.20 77 1006.0
20200226161648 2 234 8.0 17.7 0.00 0.20 0.20 77 1006.0
20200226161217 2 249 11.3 20.9 0.00 0.20 0.20 77 1005.9
20200226160617 2 250 8.0 14.5 0.00 0.20 0.20 77 1005.7
20200226160017 2 275 9.7 19.3 0.00 0.20 0.20 76 1005.7
20200226155417 2 277 9.7 19.3 0.00 0.20 0.20 76 1005.5
20200226154817 2 219 4.8 19.3 0.00 0.20 0.20 75 1005.4
20200226154649 2 219 4.8 19.3 0.00 0.20 0.20 75 1005.4
20200226154217 2 265 12.9 20.9 0.00 0.20 0.20 74 1005.3
20200226153618 2 256 8.0 22.5 0.00 0.20 0.20 74 1005.3
20200226153449 2 271 17.7 24.1 0.00 0.20 0.20 73 1005.2
20200226153017 2 271 17.7 24.1 0.00 0.20 0.20 73 1005.2
20200226152417 2 299 11.3 25.7 0.00 0.20 0.20 71 1004.9
20200226151818 3 269 9.7 24.1 0.00 0.20 0.20 72 1004.8
20200226151218 3 292 14.5 20.9 0.00 0.20 0.20 69 1004.7
20200226151048 3 292 14.5 20.9 0.00 0.20 0.20 69 1004.7
20200226150618 3 281 17.7 24.1 0.00 0.20 0.20 68 1004.6
20200226150017 3 253 16.1 27.4 0.00 0.20 0.20 68 1004.6
20200226145418 3 281 19.3 29.0 0.00 0.23 0.20 68 1004.6
20200226144817 3 281 20.9 38.6 0.00 0.23 0.20 68 1004.6
20200226144649 3 281 20.9 38.6 0.00 0.23 0.20 68 1004.6
20200226144216 3 290 24.1 37.0 0.00 0.23 0.20 66 1004.5
20200226144048 3 290 24.1 37.0 0.00 0.23 0.20 66 1004.5
20200226143618 3 285 20.9 29.0 0.00 0.23 0.20 65 1004.7
20200226143016 3 269 16.1 29.0 0.00 0.23 0.20 66 1004.5
20200226142416 3 271 14.5 27.4 0.00 0.23 0.20 67 1004.4
20200226141818 3 311 17.7 33.8 0.00 0.23 0.20 68 1004.3
20200226141648 3 311 17.7 33.8 0.00 0.23 0.20 68 1004.3
20200226141218 3 267 22.5 43.5 0.00 0.23 0.20 68 1004.3
20200226140618 3 287 24.1 37.0 0.00 0.23 0.20 69 1004.2
20200226140018 3 270 11.3 17.7 0.00 0.23 0.20 73 1004.2
20200226135848 3 287 12.9 20.9 0.00 0.23 0.20 74 1004.1
20200226135417 2 288 16.1 29.0 0.00 0.23 0.20 73 1004.1
20200226134818 2 264 17.7 35.4 0.00 0.23 0.20 72 1004.0
20200226134648 2 264 17.7 35.4 0.00 0.23 0.20 72 1004.0
20200226134217 2 292 27.4 43.5 0.03 0.23 0.20 70 1003.9
20200226134049 2 292 27.4 43.5 0.03 0.23 0.20 70 1003.9
20200226133617 2 294 20.9 41.8 0.03 0.23 0.20 71 1003.9
20200226133446 2 236 22.5 32.2 0.05 0.23 0.20 74 1003.9
20200226133017 2 236 22.5 32.2 0.05 0.23 0.20 74 1003.9
20200226132850 2 254 16.1 25.7 0.05 0.23 0.20 78 1004.0
20200226132417 2 290 14.5 27.4 0.05 0.23 0.20 77 1003.9
20200226131817 2 286 16.1 27.4 0.05 0.23 0.20 79 1003.9
20200226131651 2 286 16.1 27.4 0.05 0.23 0.20 79 1003.9
20200226131217 2 290 16.1 33.8 0.05 0.23 0.20 77 1003.8
20200226130618 2 302 22.5 37.0 0.05 0.23 0.20 78 1003.6
20200226130447 2 306 19.3 37.0 0.05 0.23 0.20 77 1003.6
20200226130018 2 306 19.3 37.0 0.05 0.23 0.20 77 1003.6
20200226125848 2 284 22.5 30.6 0.05 0.23 0.20 78 1003.3
20200226125418 2 290 16.1 33.8 0.05 0.23 0.20 79 1003.3
20200226124818 2 284 17.7 33.8 0.05 0.23 0.20 80 1003.3
20200226124648 2 284 17.7 33.8 0.05 0.23 0.20 80 1003.3
20200226124218 2 286 22.5 43.5 0.05 0.20 0.18 78 1003.0
20200226124047 2 286 22.5 43.5 0.05 0.20 0.18 78 1003.0
20200226123618 1 276 19.3 32.2 0.05 0.20 0.18 82 1002.9
20200226123452 1 266 30.6 45.1 0.03 0.18 0.15 83 1002.8
20200226123017 1 266 30.6 45.1 0.03 0.18 0.15 83 1002.8
20200226122848 1 316 22.5 38.6 0.03 0.18 0.15 89 1002.8
20200226122417 1 288 14.5 19.3 0.00 0.15 0.15 91 1002.8
20200226121817 0 253 14.5 24.1 0.00 0.15 0.15 91 1002.7
20200226121648 0 253 14.5 24.1 0.00 0.15 0.15 91 1002.7
20200226121217 0 261 11.3 24.1 0.00 0.15 0.15 91 1002.7
20200226121049 0 261 11.3 24.1 0.00 0.15 0.15 91 1002.7
20200226120618 1 273 17.7 29.0 0.00 0.15 0.15 90 1002.7
20200226120447 1 290 12.9 24.1 0.00 0.15 0.15 89 1002.6
20200226120018 1 290 12.9 24.1 0.00 0.15 0.15 89 1002.6
20200226115417 2 262 14.5 24.1 0.00 0.15 0.15 84 1002.4
20200226114817 2 259 12.9 30.6 0.00 0.15 0.15 82 1002.1
20200226114647 2 259 12.9 30.6 0.00 0.15 0.15 82 1002.1
20200226114217 3 264 14.5 30.6 0.00 0.15 0.15 83 1002.0
20200226113617 3 243 16.1 20.9 0.00 0.15 0.15 83 1001.9
20200226113447 2 274 11.3 24.1 0.00 0.15 0.15 83 1001.8
20200226113017 2 274 11.3 24.1 0.00 0.15 0.15 83 1001.8
20200226112851 2 232 11.3 27.4 0.00 0.15 0.15 85 1001.8
20200226112418 2 286 9.7 27.4 0.00 0.15 0.15 85 1001.7
20200226111818 2 255 11.3 20.9 0.00 0.15 0.15 86 1001.7
20200226111648 2 255 11.3 20.9 0.00 0.15 0.15 86 1001.7
20200226111218 2 216 11.3 29.0 0.00 0.15 0.15 86 1001.6
20200226111048 2 216 11.3 29.0 0.00 0.15 0.15 86 1001.6
20200226110618 2 323 17.7 27.4 0.00 0.15 0.15 86 1001.6
20200226110447 2 290 11.3 27.4 0.00 0.15 0.15 86 1001.5
20200226110017 2 290 11.3 27.4 0.00 0.15 0.15 86 1001.5
20200226105418 2 232 12.9 25.7 0.00 0.18 0.15 86 1001.4
20200226105250 2 232 12.9 25.7 0.00 0.18 0.15 86 1001.4
20200226104818 2 284 14.5 29.0 0.00 0.18 0.15 85 1001.2
20200226104648 2 284 14.5 29.0 0.00 0.18 0.15 85 1001.2
20200226104217 2 274 12.9 20.9 0.00 0.18 0.15 84 1001.2